Sigfox identifier Datetime Temperature Humidity SNR
0038AD95 2018-10-09 08:37:36 20.7 42 13.3
0038AD95 2018-10-09 07:33:33 20.7 42 13.2
0038AD95 2018-10-09 06:29:34 20.7 41 13.3
0038AD95 2018-10-09 05:25:33 20.7 41 13
0038AD95 2018-10-09 02:13:28 20.7 40 13.2
0038AD95 2018-10-09 01:09:27 20.7 40 12.8
0038AD95 2018-10-09 00:05:27 20.7 40 12.3
0038AD95 2018-10-08 23:01:29 20.7 39 12.7
0038AD95 2018-10-08 21:57:28 20.7 39 12.6
0038AD95 2018-10-08 20:53:28 20.7 39 12.6
0038AD95 2018-10-08 19:49:28 20.7 39 12.6
0038AD95 2018-10-08 18:45:28 20.7 39 12.5
0038AD95 2018-10-08 17:41:29 20.7 39 12.5
0038AD95 2018-10-08 16:37:25 20.7 38 12.6
0038AD95 2018-10-08 15:33:25 20.6 38 12.6
0038AD95 2018-10-08 12:21:19 20.7 37 12.9
0038AD95 2018-10-08 09:09:22 20.5 37 13.3
0038AD95 2018-10-08 08:05:21 20.5 37 13.6
0038AD95 2018-10-08 07:01:22 20.5 37 13.5
0038AD95 2018-10-08 05:57:19 20.5 38 13.8
0038AD95 2018-10-08 04:53:17 20.5 38 13.8
0038AD95 2018-10-08 03:49:18 20.5 38 13.5
0038AD95 2018-10-08 02:45:14 20.5 38 13.7
0038AD95 2018-10-08 01:41:14 20.5 38 13.7
0038AD95 2018-10-08 00:37:14 20.5 39 13.7
0038AD95 2018-10-07 23:33:10 20.5 39 13.8
0038AD95 2018-10-07 22:29:08 20.7 39 14.1
0038AD95 2018-10-07 21:25:08 20.7 39 14.4
0038AD95 2018-10-07 20:21:07 20.7 39 14.5
0038AD95 2018-10-07 19:17:05 20.7 39 14.4
0038AD95 2018-10-07 18:13:05 20.7 39 14.7
0038AD95 2018-10-07 17:09:01 20.7 39 14.7
0038AD95 2018-10-07 16:04:56 20.7 39 14.7
0038AD95 2018-10-07 15:00:56 20.7 39 14.6
0038AD95 2018-10-07 13:56:56 20.7 39 14.7
0038AD95 2018-10-07 12:52:53 20.7 39 15
0038AD95 2018-10-07 11:48:52 20.7 40 15.3
0038AD95 2018-10-07 10:44:51 20.7 40 15.4
0038AD95 2018-10-07 09:40:42 20.7 40 15.5
0038AD95 2018-10-07 08:36:39 20.7 40 15.8
0038AD95 2018-10-07 07:32:39 20.7 40 15.9
0038AD95 2018-10-07 06:28:37 20.7 40 15.9
0038AD95 2018-10-07 05:24:34 20.7 40 15.7
0038AD95 2018-10-07 04:20:31 20.7 40 15.8
0038AD95 2018-10-07 03:16:32 20.8 40 15.8
0038AD95 2018-10-07 02:12:27 20.8 40 18.9
0038AD95 2018-10-07 01:08:26 20.9 40 18.9
0038AD95 2018-10-07 00:04:26 20.9 40 18.9
0038AD95 2018-10-06 23:00:24 20.9 40 18.9
0038AD95 2018-10-06 21:56:21 21 41 18.9
0038AD95 2018-10-06 20:52:18 21 41 18.9
0038AD95 2018-10-06 19:48:18 21 41 18.8
0038AD95 2018-10-06 18:44:18 21 41 18.8
0038AD95 2018-10-06 17:40:22 21 41 18.9
0038AD95 2018-10-06 16:36:25 21 41 19.1
0038AD95 2018-10-06 15:32:22 21 41 19.1
0038AD95 2018-10-06 14:28:23 21 41 19.3
0038AD95 2018-10-06 13:24:29 21 41 19.4
0038AD95 2018-10-06 12:20:32 21 41 19.6
0038AD95 2018-10-06 11:16:32 21 41 19.8
0038AD95 2018-10-06 10:12:34 21 41 19.9
0038AD95 2018-10-06 09:08:34 21 41 20
0038AD95 2018-10-06 08:04:34 21 42 20.2
0038AD95 2018-10-06 07:00:35 21.1 42 20.4
0038AD95 2018-10-06 05:56:35 21.2 42 20.5
0038AD95 2018-10-06 04:52:36 21.2 42 20.6
0038AD95 2018-10-06 03:48:41 21.2 42 20.8
0038AD95 2018-10-06 02:44:36 21.2 43 21.3
0038AD95 2018-10-06 01:40:38 21.2 43 21.7
0038AD95 2018-10-06 00:36:34 21.3 43 22
0038AD95 2018-10-05 22:28:31 21.4 43 12.9
0038AD95 2018-10-05 21:24:30 21.5 43 13.5
0038AD95 2018-10-05 20:20:29 21.6 43 11.9
0038AD95 2018-10-05 19:16:29 21.7 44 9.9
0038AD95 2018-10-05 18:12:29 21.8 44 11
0038AD95 2018-10-05 17:08:27 22.2 45 10.2
0038AD95 2018-10-05 16:04:25 22.2 55 0